Hourly Weather Golaszyce

Today, 18 May, Tuesday

Time Temperature Precipitation Wind Pressure Humidity
00:00 +8°C° 0 mm 4 mps 739 mmHg 91%
01:00 +8°C° 0 mm 4 mps 739 mmHg 91%
02:00 +7°C° 0 mm 4 mps 739 mmHg 91%
03:00 +8°C° 0 mm 3 mps 739 mmHg 91%
04:00 +7°C° 0 mm 3 mps 739 mmHg 92%
05:00 +7°C° 0 mm 4 mps 740 mmHg 89%
06:00 +10°C° 0 mm 4 mps 740 mmHg 87%
07:00 +11°C° 0 mm 4 mps 740 mmHg 85%
08:00 +10°C° 0.1 mm 5 mps 740 mmHg 84%
09:00 +10°C° 0.1 mm 5 mps 740 mmHg 83%
10:00 +12°C° 0.1 mm 5 mps 741 mmHg 83%
11:00 +13°C° 0.2 mm 6 mps 741 mmHg 78%
12:00 +13°C° 0.2 mm 6 mps 741 mmHg 73%
13:00 +14°C° 0.2 mm 6 mps 741 mmHg 68%
14:00 +14°C° 0.1 mm 6 mps 741 mmHg 68%
15:00 +15°C° 0.1 mm 5 mps 741 mmHg 67%
16:00 +15°C° 0.1 mm 5 mps 740 mmHg 67%
17:00 +14°C° 0.1 mm 5 mps 741 mmHg 72%
18:00 +13°C° 0.1 mm 4 mps 741 mmHg 77%
19:00 +11°C° 0.1 mm 4 mps 741 mmHg 82%
20:00 +10°C° 0 mm 3 mps 742 mmHg 86%
21:00 +9°C° 0 mm 3 mps 742 mmHg 89%
22:00 +8°C° 0 mm 3 mps 742 mmHg 93%
23:00 +8°C° 0 mm 3 mps 742 mmHg 92%

Tomorrow, 19 May, Wednesday

Time Temperature Precipitation Wind Pressure Humidity
00:00 +8°C° 0 mm 3 mps 742 mmHg 92%
01:00 +7°C° 0 mm 3 mps 743 mmHg 92%
02:00 +7°C° 0 mm 3 mps 743 mmHg 92%
03:00 +7°C° 0 mm 3 mps 743 mmHg 93%
04:00 +6°C° 0 mm 2 mps 743 mmHg 93%
05:00 +7°C° 0 mm 3 mps 743 mmHg 89%
06:00 +9°C° 0 mm 3 mps 743 mmHg 85%
07:00 +10°C° 0 mm 3 mps 743 mmHg 80%
08:00 +10°C° 0.2 mm 4 mps 744 mmHg 81%
09:00 +11°C° 0.2 mm 4 mps 744 mmHg 81%
10:00 +11°C° 0.2 mm 4 mps 744 mmHg 81%
11:00 +10°C° 0.2 mm 5 mps 744 mmHg 80%
12:00 +10°C° 0.2 mm 5 mps 744 mmHg 78%
13:00 +11°C° 0.2 mm 6 mps 744 mmHg 77%
14:00 +11°C° 0.1 mm 6 mps 744 mmHg 77%
15:00 +11°C° 0.1 mm 6 mps 744 mmHg 76%
16:00 +10°C° 0.1 mm 5 mps 744 mmHg 76%
17:00 +10°C° 0 mm 5 mps 744 mmHg 78%
18:00 +10°C° 0 mm 4 mps 744 mmHg 81%
19:00 +9°C° 0 mm 3 mps 745 mmHg 84%
20:00 +9°C° 0 mm 2 mps 745 mmHg 86%
21:00 +8°C° 0 mm 2 mps 745 mmHg 88%
22:00 +7°C° 0 mm 2 mps 745 mmHg 90%
23:00 +7°C° 0 mm 2 mps 745 mmHg 88%

Day after tomorrow, 20 May, Thursday

Time Temperature Precipitation Wind Pressure Humidity
00:00 +7°C° 0 mm 2 mps 745 mmHg 87%
01:00 +7°C° 0 mm 2 mps 745 mmHg 85%
02:00 +7°C° 0 mm 2 mps 745 mmHg 87%
03:00 +6°C° 0 mm 2 mps 746 mmHg 89%
04:00 +6°C° 0 mm 2 mps 746 mmHg 90%
05:00 +7°C° 0 mm 2 mps 746 mmHg 87%
06:00 +9°C° 0 mm 3 mps 747 mmHg 83%
07:00 +10°C° 0 mm 3 mps 747 mmHg 80%
08:00 +11°C° 0.2 mm 4 mps 747 mmHg 77%
09:00 +12°C° 0.2 mm 4 mps 747 mmHg 75%
10:00 +13°C° 0.2 mm 4 mps 747 mmHg 73%
11:00 +13°C° 0.3 mm 5 mps 747 mmHg 74%
12:00 +13°C° 0.3 mm 5 mps 747 mmHg 75%
13:00 +12°C° 0.3 mm 5 mps 747 mmHg 77%
14:00 +13°C° 0.1 mm 5 mps 747 mmHg 73%
15:00 +13°C° 0.1 mm 5 mps 747 mmHg 69%
16:00 +14°C° 0.1 mm 5 mps 747 mmHg 65%
17:00 +13°C° 0 mm 5 mps 748 mmHg 69%
18:00 +11°C° 0 mm 4 mps 748 mmHg 74%
19:00 +10°C° 0 mm 3 mps 748 mmHg 78%
20:00 +9°C° 0 mm 3 mps 749 mmHg 82%
21:00 +8°C° 0 mm 2 mps 749 mmHg 86%
22:00 +7°C° 0 mm 2 mps 749 mmHg 90%
23:00 +6°C° 0 mm 2 mps 749 mmHg 91%

21 May, Friday

Time Temperature Precipitation Wind Pressure Humidity
00:00 +6°C° 0 mm 2 mps 749 mmHg 91%
01:00 +6°C° 0 mm 2 mps 749 mmHg 92%
02:00 +5°C° 0 mm 2 mps 749 mmHg 92%
03:00 +5°C° 0 mm 2 mps 749 mmHg 91%
04:00 +5°C° 0 mm 2 mps 749 mmHg 91%
05:00 +7°C° 0 mm 2 mps 749 mmHg 86%
06:00 +9°C° 0 mm 2 mps 749 mmHg 80%
07:00 +10°C° 0 mm 2 mps 749 mmHg 75%
08:00 +13°C° 0.1 mm 2 mps 748 mmHg 71%
09:00 +13°C° 0.1 mm 3 mps 748 mmHg 67%
10:00 +14°C° 0.1 mm 3 mps 748 mmHg 63%
11:00 +16°C° 0.1 mm 3 mps 747 mmHg 59%
12:00 +17°C° 0.1 mm 3 mps 747 mmHg 56%
13:00 +17°C° 0.1 mm 3 mps 746 mmHg 52%
14:00 +17°C° 0 mm 3 mps 746 mmHg 54%
15:00 +17°C° 0 mm 2 mps 745 mmHg 55%
16:00 +17°C° 0 mm 2 mps 745 mmHg 57%
17:00 +16°C° 0 mm 2 mps 745 mmHg 62%
18:00 +15°C° 0 mm 2 mps 744 mmHg 67%
19:00 +14°C° 0 mm 2 mps 744 mmHg 73%
20:00 +13°C° 0 mm 2 mps 744 mmHg 73%
21:00 +12°C° 0 mm 2 mps 743 mmHg 74%
22:00 +10°C° 0 mm 3 mps 743 mmHg 74%
23:00 +10°C° 0 mm 3 mps 742 mmHg 74%

22 May, Saturday

Time Temperature Precipitation Wind Pressure Humidity
00:00 +10°C° 0 mm 3 mps 742 mmHg 74%
01:00 +10°C° 0 mm 4 mps 741 mmHg 74%
02:00 +10°C° 0 mm 4 mps 741 mmHg 74%
03:00 +10°C° 0 mm 4 mps 740 mmHg 74%
04:00 +10°C° 0 mm 4 mps 740 mmHg 73%
05:00 +11°C° 0 mm 4 mps 740 mmHg 73%
06:00 +12°C° 0 mm 4 mps 740 mmHg 73%
07:00 +13°C° 0 mm 4 mps 740 mmHg 74%
08:00 +14°C° 0 mm 5 mps 740 mmHg 70%
09:00 +15°C° 0 mm 5 mps 740 mmHg 67%
10:00 +16°C° 0 mm 6 mps 741 mmHg 64%
11:00 +15°C° 0.2 mm 5 mps 741 mmHg 69%
12:00 +14°C° 0.2 mm 5 mps 741 mmHg 73%
13:00 +13°C° 0.2 mm 4 mps 741 mmHg 78%
14:00 +13°C° 0.2 mm 4 mps 741 mmHg 74%
15:00 +13°C° 0.2 mm 4 mps 741 mmHg 71%
16:00 +14°C° 0.2 mm 4 mps 741 mmHg 68%
17:00 +13°C° 0 mm 3 mps 741 mmHg 70%
18:00 +12°C° 0 mm 3 mps 741 mmHg 72%
19:00 +11°C° 0 mm 3 mps 742 mmHg 75%
20:00 +10°C° 0 mm 3 mps 742 mmHg 76%
21:00 +9°C° 0 mm 3 mps 742 mmHg 77%
22:00 +8°C° 0 mm 3 mps 742 mmHg 78%
23:00 +8°C° 0 mm 3 mps 742 mmHg 81%

23 May, Sunday

Time Temperature Precipitation Wind Pressure Humidity
00:00 +7°C° 0 mm 3 mps 742 mmHg 84%
01:00 +5°C° 0 mm 3 mps 742 mmHg 87%
02:00 +5°C° 0 mm 3 mps 742 mmHg 87%
03:00 +5°C° 0 mm 3 mps 742 mmHg 88%
04:00 +5°C° 0 mm 3 mps 742 mmHg 89%
05:00 +8°C° 0 mm 3 mps 742 mmHg 83%
06:00 +8°C° 0 mm 4 mps 742 mmHg 77%
07:00 +11°C° 0 mm 4 mps 742 mmHg 71%
08:00 +12°C° 0 mm 4 mps 742 mmHg 67%
09:00 +14°C° 0 mm 5 mps 742 mmHg 63%
10:00 +15°C° 0 mm 5 mps 742 mmHg 58%
11:00 +15°C° 0.2 mm 5 mps 742 mmHg 59%
12:00 +15°C° 0.2 mm 5 mps 742 mmHg 60%
13:00 +15°C° 0.2 mm 4 mps 742 mmHg 61%
14:00 +15°C° 0.2 mm 4 mps 742 mmHg 61%
15:00 +15°C° 0.2 mm 4 mps 743 mmHg 60%
16:00 +15°C° 0.2 mm 4 mps 743 mmHg 60%
17:00 +14°C° 0.1 mm 3 mps 743 mmHg 65%
18:00 +13°C° 0.1 mm 3 mps 744 mmHg 71%
19:00 +12°C° 0.1 mm 2 mps 744 mmHg 77%
20:00 +10°C° 0 mm 2 mps 745 mmHg 79%
21:00 +10°C° 0 mm 2 mps 745 mmHg 81%
22:00 +9°C° 0 mm 2 mps 746 mmHg 83%
23:00 +8°C° 0 mm 2 mps 746 mmHg 85%
Show more